Location: Poughquag
(41.6090°N, 73.6820°W)
Time: 18:50:18
(UTC-05:00)

A-11 Canister half - Pass Details

Date: 16 December 2023
Orbit: 1526 x 1682 km, 47.3° (Epoch: 23 February)

Event Time Altitude Azimuth Distance (km) Brightness Sun altitude
Rises 19:10:19 0° 281° (WNW) 4,927 12.7 -29.8°
Reaches altitude 10° 19:13:33 10° 285° (WNW) 3,944 11.9 -30.4°
Maximum altitude 19:23:39 65° 7° (N) 1,814 9.2 -32.3°
Enters shadow 19:25:09 59° 45° (NE) 1,885 9.1 -32.6°
